Regional Weather Roundup
Issued by NWS

Home | Current Version | Previous Version | Text Only | Print | Product List | Glossary Off
Versions: 1 2 3 4 5 6 7 8 9 10 11 12 13 14 15 16 17 18 19 20 21 22 23 24 25 26 27 28 29 30 31 32 33 34 35 36 37 38 39 40 41 42 43 44 45 46 47 48 49 50

000
ASUS43 KLOT 141503
RWRIL

ILLINOIS REGIONAL WEATHER ROUNDUP
NATIONAL WEATHER SERVICE CHICAGO/ROMEOVILLE IL
900 AM CST SUN FEB 14 2016

NOTE: "FAIR" INDICATES FEW OR NO CLOUDS BELOW 12,000 FEET WITH NO
SIGNIFICANT WEATHER AND/OR OBSTRUCTIONS TO VISIBILITY.

* THESE STATIONS ARE NOT UNDER NWS QUALITY CONTROL. THEY ALSO MAY NOT
  REPORT WEATHER SUCH AS PRECIPITATION OR FOG.

ILZ001-002-007-009-015-016-024-141600-
NORTHWEST ILLINOIS

CITY           SKY/WX    TMP DP  RH WIND       PRES   REMARKS
MOLINE         HVY SNOW  17  12  80 SE12      30.19R VSB 1/4 WCI   4
STERLING*      CLOUDY    16   7  67 SE16G23   30.17F WCI   0
$$

ILZ003-004-008-010-011-017-018-141600-
NORTH CENTRAL ILLINOIS

CITY           SKY/WX    TMP DP  RH WIND       PRES   REMARKS
ROCKFORD       CLOUDY    16   3  56 SE17      30.25F WCI   0
FREEPORT*      CLOUDY    15   7  70 SE16G23   30.22F WCI  -1
DE KALB*       CLOUDY    15   4  60 SE16G25   30.22F WCI   0
$$

ILZ005-006-012>014-019>023-141600-
NORTHEAST ILLINOIS

CITY           SKY/WX    TMP DP  RH WIND       PRES   REMARKS
CHICAGO-OHARE  CLOUDY    16   2  54 SE17      30.27F WCI   0
CHICAGO-MIDWAY CLOUDY    16   1  51 SE15      30.29F WCI   1
AURORA         CLOUDY    17   3  54 SE20      30.25F WCI   1
WAUKEGAN       CLOUDY    16   8  71 SE15G26   30.27F WCI   1
DUPAGE AIRPORT CLOUDY    15   1  53 SE13      30.25F WCI   1
WHEELING       CLOUDY    16   4  59 SE14      30.30F WCI   2
NORTHERLY ISL    N/A     16   6  65 SE22        N/A  WCI  -1
$$

LMZ740>746-141600-
SOUTHERN LAKE MICHIGAN

STATION/POSITION SKY/WX   TEMP    WIND        PRES    VSBY  WAVE
                          AIR SEA DIR/SP/G                  HT/PER
                          (F)     (DEG/KT/KT) (MB)    (MI)  (FT/S)
HARRISON CRIB              16     140/ 20/ 24   N/A
BURNHAM HARBOR             16     110/ 17/ 21   N/A
CALUMET HARBOR             14     120/ 13/ 17 1026.8F
BURNS HARBOR               13     130/  7/ 21 1028.8F
MICHIGAN CITY              11     100/ 10/ 13   N/A
$$

ILZ025>027-034>036-040-047-049-050-058-095>099-141600-
WEST-CENTRAL ILLINOIS

CITY           SKY/WX    TMP DP  RH WIND       PRES   REMARKS
QUINCY         SNOW      19  15  84 SE13      30.11F VSB 1/2 WCI   6
MACOMB*        SNOW      17  15  92 SE17      30.16F VSB 1/2 WCI   1
$$

ILZ028>032-037-038-041>044-048-051>054-059>061-141600-
CENTRAL ILLINOIS

CITY           SKY/WX    TMP DP  RH WIND       PRES   REMARKS
BLOOMINGTON    CLOUDY    16  12  84 SE16G22   30.22F WCI   1
DECATUR        CLOUDY    18  11  74 SE17G26   30.21F WCI   3
PEORIA         LGT SNOW  17  11  77 SE14      30.21R WCI   3
SPRINGFIELD    LGT SNOW  20  13  74 SE10      30.22R WCI   9
TAYLORVILLE    NOT AVBL
$$

ILZ033-039-045-046-055>057-062-063-141600-
EAST-CENTRAL ILLINOIS

CITY           SKY/WX    TMP DP  RH WIND       PRES   REMARKS
CHAMPAIGN      CLOUDY    17  12  80 SE21G29   30.23F WCI   0
MATTOON        CLOUDY    17  11  77 SE23      30.23S WCI  -1
$$

ILZ079-100>102-141600-
SOUTHWEST ILLINOIS

CITY           SKY/WX    TMP DP  RH WIND       PRES   REMARKS
ALTON          CLOUDY    21  16  79 SE14      30.19S WCI   8
BELLEVILLE     LGT SNOW  21  18  86 SE14      30.20S WCI   8
CAHOKIA*       LGT SNOW  22  17  81 SE9       30.20S VSB 3/4 WCI  12
SPARTA*        LGT SNOW  21  17  83 SE13G18   30.20F VSB 1   WCI   9
$$

ILZ064>066-069>071-074>076-080>082-084>086-088>090-092>094-141600-
SOUTH-CENTRAL ILLINOIS

CITY           SKY/WX    TMP DP  RH WIND       PRES   REMARKS
CARBONDALE     HVY SNOW  22  17  81 SE12      30.24S VSB 1/4 WCI  10
MARION         LGT SNOW  25 N/A N/A SE14      30.25S WCI  13
MT. VERNON     CLOUDY    21  12  68 SE15G21   30.23F WCI   8
CENTRALIA*     CLOUDY    23  17  75 SE12      30.22R WCI  12
SALEM*         CLOUDY    24  11  58 SE8       30.22S WCI  15
$$

ILZ067-068-072-073-078-083-087-091-141600-
SOUTHEAST ILLINOIS

CITY           SKY/WX    TMP DP  RH WIND       PRES   REMARKS
LAWRENCEVILLE  CLOUDY    20  13  74 SE22      30.30F WCI   3
HARRISBURG*    FLURRIES  23  19  84 SE15      30.27S WCI  10
$$

ABBREVIATIONS USED IN REMARKS
   TC - TEMPERATURE IN CELSIUS
  WCI - WIND CHILL INDEX
   HX - HEAT INDEX
  VSB - VISIBILITY
$$




USA.gov is the U.S. government's official web portal to all federal, state and local government web resources and services.